Location: Freistadt
(48.5112°N, 14.5013°E)
Time: 09:39:16
(UTC+01:00)

N. Korean satellite - Pass Details

Date: 29 November 2022
Orbit: 407 x 442 km, 97.3° (Epoch: 04 February)

Event Time Altitude Azimuth Distance (km) Brightness Sun altitude
Rises 16:42:43 0° 178° (S) 2,424 10.5 -5.5°
Reaches altitude 10° 16:44:45 10° 184° (S) 1,571 9.6 -5.8°
Maximum altitude 16:48:02 48° 261° (W) 601 7.6 -6.3°
Drops below altitude 10° 16:51:24 10° 337° (NNW) 1,617 9.2 -6.8°
Sets 16:53:32 0° 343° (NNW) 2,507 10.1 -7.1°
